sat.trackr.live / text

‹ back to catalog

STARLINK-37300

NORAD 68682 · 2026-077W

PAYLOAD ACTIVE UNKNOWN

§ Identity

Operator
Country
US
Launch date
2026-04-11
Launch site
AFWTR
Launch vehicle
Mass (kg)
RCS (m²)

Purposes: comms

External: N2YO · Heavens-Above · Gunter

§ Orbital elements

Epoch: 2026-05-25T02:22:26.213664Z

Period
93.90 min
Inclination
97.2865°
Eccentricity
0.0002279
Mean motion
15.33503134 rev/d
Perigee alt
463.8 km
Apogee alt
466.9 km
Semi-major
6,843.5 km
B*
1.1017e-3
RAAN
16.7624°
Arg perigee
84.5278°
Mean anomaly
275.6225°
Rev number
687

§ Raw data

STARLINK-373001 68682U 26077W   26145.09891451  .00035727  00000+0  11017-2 0  99922 68682  97.2865  16.7624 0002279  84.5278 275.6225 15.33503134  6877

JSON: /api/v1/satellites/68682 · /tle

For live sub-satellite position, see the globe view (requires WebGL).

§ Visibility from observer

Set your observer location to see the next 7 days of passes ≥ 10°. The values pass through the URL so the page stays shareable.

No JS? Fill the form by hand. The geolocation button needs JavaScript.